Location: Champs
(48.8539°N, 2.6040°E)
Time: 17:50:32
(UTC+00:00)

DMSP 5D-2 F13 DEB - Pass Details

Date: 13 August 2022
Orbit: 710 x 775 km, 98.8° (Epoch: 23 September)

Event Time Altitude Azimuth Distance (km) Brightness Sun altitude
Exits shadow 00:47:46 13° 276° (W) 2,086 ? -25.3°
Drops below altitude 10° 00:50:03 10° 302° (WNW) 2,330 ? -25.2°
Sets 00:53:41 0° 329° (NNW) 3,272 ? -25.1°
